Wind_Speed
25 23 21 21 21 21 21 22 23 21 18 18 18 16 14 13 15 16 17 17 13 11 10 12 11 8 21 34 39 39 34 31 35 31 39 40 36 35 34 33 28 30 28 29 27
26 26 26 26 27 27 27 26 25 22 20 19 17 17 17 14 12 13 16 17 16 10 10 10 11 12 3 30 39 40 42 41 41 30 29 27 24 30 32 29 26 26 25 23 20
31 31 31 31 31 31 32 30 28 27 25 24 22 21 22 21 11 16 13 16 17 14 8 9 10 10 8 18 30 37 40 43 45 35 25 22 21 24 24 23 22 21 19 19 21
35 35 35 35 34 35 35 35 33 32 30 28 28 28 27 25 18 20 17 16 17 16 11 7 7 9 6 17 19 30 31 27 29 28 29 27 24 22 20 18 18 21 21 19 17
39 39 38 37 37 37 38 38 38 39 38 36 34 31 30 31 28 24 23 21 20 18 16 8 5 7 7 3 4 13 15 20 26 27 25 22 24 20 16 16 16 17 16 13 10
42 42 42 42 41 41 42 42 40 39 39 39 36 37 38 37 35 33 31 26 25 22 21 16 8 7 10 4 3 7 10 11 20 22 20 16 13 18 16 15 13 10 9 7 5
45 46 45 43 43 43 44 45 45 44 43 43 42 41 43 41 38 38 37 35 33 28 25 22 17 11 13 11 9 7 3 3 10 13 16 15 18 17 10 11 11 12 10 5 6
48 50 49 50 50 50 49 46 45 43 43 44 43 41 43 42 45 42 40 40 36 35 32 28 26 20 16 16 14 14 10 6 5 4 13 14 18 15 13 12 9 9 11 11 9
52 52 52 50 49 48 45 41 36 33 26 26 28 29 33 36 39 43 46 44 41 39 36 34 30 29 23 20 21 16 15 11 7 5 12 12 15 10 10 10 10 10 11 13 14
54 53 51 47 45 41 36 34 30 28 25 25 21 23 23 28 31 36 39 44 46 44 42 38 36 34 29 28 22 19 20 15 12 6 9 10 16 12 12 15 15 13 11 12 13
53 49 45 42 39 36 31 29 30 28 25 22 21 19 16 15 21 26 30 36 43 48 44 42 39 38 37 34 24 23 23 21 13 12 5 12 6 5 9 11 12 11 9 14 17
50 47 45 42 42 39 36 37 34 29 28 26 23 23 20 21 17 17 19 21 32 40 47 45 46 44 40 37 31 27 27 27 20 13 10 6 16 9 2 6 8 11 15 19 23
52 49 50 48 46 44 40 39 36 33 33 35 27 29 22 24 22 20 14 17 19 28 37 45 52 46 43 41 38 33 34 32 26 18 13 10 17 8 4 5 9 14 17 17 16
54 52 52 53 50 48 44 47 41 36 32 40 30 31 34 30 32 26 23 20 17 11 17 36 44 50 49 45 43 39 44 35 31 25 20 15 11 19 11 9 12 17 14 13 16
59 57 57 57 58 54 54 53 51 45 36 39 38 36 39 38 41 36 28 27 26 21 20 23 33 44 51 53 47 55 43 39 35 30 24 15 16 18 15 16 18 20 16 15 18
66 64 65 63 64 64 60 59 57 53 39 44 44 46 46 44 42 38 35 32 29 26 27 30 21 29 44 53 53 60 48 45 41 35 25 25 20 17 21 18 18 20 17 19 20
73 71 69 72 69 67 64 63 63 55 52 55 52 51 51 51 50 46 41 37 37 31 33 32 28 22 29 45 57 61 56 50 46 37 33 38 28 29 25 24 24 24 23 22 23
75 78 79 78 76 72 73 71 65 60 64 64 61 57 57 60 57 52 47 40 41 42 43 37 34 37 34 26 40 56 59 56 51 46 46 44 33 39 34 29 28 25 26 28 28
79 81 84 86 82 82 83 78 75 75 73 73 70 69 67 66 65 63 53 49 46 46 45 44 40 46 37 35 29 39 51 63 57 55 51 44 40 43 39 34 33 32 31 32 34
84 84 90 91 89 88 88 84 82 82 82 80 80 80 75 72 69 67 61 55 55 55 53 49 48 49 43 40 31 29 36 51 57 59 55 53 50 45 47 44 41 37 36 41 38
94 92 99 97 95 94 92 92 91 94 90 88 87 85 85 83 74 71 65 64 67 63 65 59 56 56 47 33 41 41 40 34 44 57 61 57 49 53 55 53 47 47 44 41 37
101 100 106 101 103 99 97 98 99 99 103 98 94 91 89 90 83 78 72 73 74 73 73 67 62 57 48 44 44 37 39 39 32 34 50 63 56 65 63 58 56 52 49 48 44
103 107 109 109 110 109 107 104 104 105 107 110 102 96 92 92 89 86 79 81 81 79 76 75 68 62 57 50 44 38 45 46 43 35 34 44 63 69 68 66 62 59 57 54 50
104 110 115 118 116 116 115 114 112 114 114 113 111 107 101 100 100 96 90 86 86 85 82 81 77 70 61 58 61 54 53 49 44 33 39 29 47 65 75 73 71 68 65 64 61
114 115 116 120 121 120 121 122 122 122 122 119 119 118 113 109 107 106 102 95 94 94 90 88 80 79 69 69 70 64 59 55 50 44 34 39 39 45 63 76 77 73 73 67 65
117 119 121 126 130 128 128 128 129 130 130 128 127 125 122 118 117 114 109 106 103 104 102 95 84 86 78 75 76 74 69 58 54 50 43 40 44 43 49 52 64 75 77 74 73
88 91 95 107 119 124 130 132 137 138 136 137 135 132 129 127 123 119 118 114 109 109 111 107 98 92 84 87 85 92 65 63 60 58 54 53 52 55 50 53 48 49 64 78 80
Wind_Direction
264 266 266 270 273 276 281 285 292 295 298 301 306 311 313 322 320 324 332 346 7 13 23 22 23 22 209 201 204 215 220 226 233 251 251 261 273 273 267 265 263 261 267 269 267
262 263 264 267 271 276 278 282 283 287 288 286 288 295 298 301 309 311 312 324 334 6 359 9 8 18 325 204 207 215 221 237 228 250 249 247 255 260 261 265 263 263 267 268 276
261 264 266 270 274 277 278 277 276 279 279 281 274 281 286 289 285 289 294 299 308 325 354 348 349 15 31 203 208 217 221 228 233 245 252 250 266 269 265 262 267 268 265 273 282
268 269 270 272 272 275 274 275 277 278 274 275 271 276 275 278 273 273 274 277 284 296 313 324 334 341 33 201 230 217 225 242 254 261 267 271 279 264 263 268 269 273 278 278 275
271 272 272 272 274 274 272 271 273 278 277 276 274 270 268 266 270 259 263 265 273 281 287 287 291 309 320 346 198 231 246 260 267 262 262 266 256 243 245 248 254 263 268 270 271
271 272 275 276 276 276 276 274 273 272 271 271 270 271 267 264 264 262 258 257 261 266 275 277 262 257 278 274 315 315 311 284 276 276 274 269 263 256 238 235 241 242 254 255 271
273 274 273 273 274 274 273 273 274 274 272 271 269 268 265 264 261 259 257 255 257 259 263 269 268 245 249 261 264 260 277 317 269 268 251 245 242 233 213 208 214 197 198 208 277
273 273 273 273 273 274 275 275 275 275 274 273 270 265 260 261 259 255 252 252 251 254 254 255 264 260 239 246 254 259 261 279 330 313 247 227 234 219 191 189 208 204 207 235 240
273 274 275 275 275 274 274 274 274 274 267 268 269 264 261 256 255 250 249 246 247 247 250 251 252 258 256 239 235 244 263 264 273 315 271 227 197 191 200 201 214 225 241 239 250
273 274 273 274 272 270 268 265 262 260 270 273 270 269 268 267 263 257 251 244 241 243 244 244 247 249 249 249 238 232 252 248 260 256 313 199 165 188 207 215 225 229 240 237 212
270 269 270 270 264 257 249 260 258 259 256 261 265 260 261 268 264 266 259 249 243 239 239 241 239 232 243 250 245 234 241 247 242 256 193 194 209 207 220 214 207 206 202 198 178
264 262 262 262 261 258 259 255 253 255 261 251 260 267 269 273 252 250 258 261 250 243 237 237 236 237 242 247 249 250 241 238 241 232 242 178 222 253 198 166 185 189 197 174 168
259 258 261 260 257 260 260 258 255 249 253 256 248 259 258 265 264 244 262 265 260 248 241 235 237 237 234 236 240 237 243 237 232 227 239 216 208 228 228 170 188 171 171 171 180
259 258 261 261 253 255 260 260 257 249 244 261 253 256 260 253 262 250 256 261 272 258 268 244 236 233 234 233 236 235 233 235 232 224 216 230 213 225 219 209 181 172 187 191 183
258 257 258 260 261 257 256 258 258 254 240 252 263 258 254 250 253 255 253 259 263 261 276 267 249 236 232 231 231 237 234 236 234 230 217 213 242 226 224 207 192 200 191 185 192
258 258 261 260 258 257 254 256 258 254 250 251 253 254 255 254 254 258 259 261 263 264 267 267 262 249 236 233 228 236 237 235 235 231 220 222 232 230 233 231 212 214 215 193 202
260 259 261 262 259 258 258 254 254 256 253 252 245 253 256 257 255 255 253 255 257 260 259 262 260 255 250 237 232 232 234 233 232 229 224 228 209 229 230 221 220 217 216 215 204
259 259 261 259 260 257 257 257 254 251 254 254 253 251 250 253 254 252 252 252 254 255 256 257 255 255 251 252 247 237 234 233 231 228 228 227 211 230 218 227 221 219 225 220 214
259 261 261 260 258 259 257 258 259 256 254 258 258 253 249 250 255 258 256 255 255 254 254 255 255 252 254 249 258 247 241 234 231 233 227 229 224 235 222 220 231 222 222 229 228
260 259 260 259 259 257 257 257 256 254 255 253 254 256 255 253 251 255 260 257 254 254 253 251 250 255 254 251 254 249 248 246 236 235 230 227 226 226 237 222 220 226 228 226 222
259 257 257 258 258 258 257 256 254 254 253 252 252 253 254 253 250 249 251 255 256 252 253 251 254 252 255 261 256 250 250 244 247 237 236 231 228 231 231 237 229 226 228 234 232
259 257 256 256 257 257 256 255 254 254 255 253 251 251 249 251 250 251 249 251 251 255 258 256 255 256 261 255 261 261 259 252 250 258 243 237 230 233 235 232 236 237 233 231 235
261 258 255 255 255 255 253 253 255 254 255 257 255 252 252 251 251 250 249 248 250 251 253 256 257 255 259 263 269 276 270 259 254 236 240 241 239 236 235 236 235 237 238 237 235
263 259 258 257 256 254 252 251 252 253 252 252 255 253 252 254 256 256 253 250 250 249 249 251 254 256 258 261 259 261 264 263 260 263 247 228 234 244 237 236 234 235 236 236 237
265 262 260 260 258 256 254 254 253 253 253 252 252 253 253 252 251 252 254 253 255 254 251 249 251 254 255 258 261 262 262 264 268 262 251 243 229 241 247 239 238 237 239 240 240
267 264 261 260 258 257 256 255 255 255 254 253 251 252 251 250 250 251 251 251 250 251 252 252 249 250 251 253 258 259 257 261 265 266 256 243 243 242 255 254 246 240 239 241 241
271 267 262 259 257 256 255 254 254 254 253 252 252 250 250 250 250 248 248 248 248 249 252 254 252 248 249 252 252 250 260 262 261 260 259 256 249 248 249 264 260 249 244 239 242
Height
10992 10992 10993 10992 10992 10993 10993 10993 10993 10994 10994 10993 10991 10991 10990 10990 10988 10986 10984 10983 10983 10982 10981 10979 10979 10976 10974 10974 10977 10975 10975 10976 10982 10983 10988 10986 10983 10981 10980 10986 10991 10987 10986 10986 10987
10987 10988 10988 10989 10988 10988 10989 10989 10989 10989 10990 10990 10989 10988 10986 10987 10987 10985 10983 10981 10981 10982 10980 10978 10976 10974 10971 10972 10975 10976 10978 10977 10979 10979 10979 10983 10983 10979 10975 10979 10984 10983 10982 10983 10983
10982 10983 10983 10983 10984 10983 10983 10983 10983 10984 10984 10984 10985 10985 10982 10982 10986 10981 10981 10979 10978 10979 10980 10977 10974 10973 10970 10970 10971 10973 10973 10973 10975 10979 10980 10980 10983 10977 10976 10976 10976 10977 10978 10979 10978
10976 10977 10977 10978 10978 10977 10976 10976 10976 10977 10978 10978 10979 10979 10979 10977 10982 10979 10978 10977 10975 10975 10978 10977 10974 10972 10972 10970 10969 10971 10974 10976 10976 10976 10975 10978 10975 10974 10972 10974 10974 10973 10973 10977 10975
10968 10968 10968 10968 10969 10969 10968 10969 10969 10969 10968 10970 10971 10972 10972 10971 10974 10975 10973 10973 10972 10971 10973 10976 10974 10971 10971 10970 10971 10971 10974 10973 10970 10971 10973 10971 10970 10969 10970 10971 10972 10971 10971 10972 10971
10958 10958 10959 10959 10959 10959 10959 10959 10960 10961 10960 10961 10961 10963 10963 10964 10966 10966 10967 10968 10967 10968 10968 10971 10973 10971 10968 10970 10969 10967 10967 10968 10966 10968 10967 10965 10963 10961 10964 10967 10970 10968 10968 10969 10971
10949 10949 10949 10950 10950 10950 10950 10950 10950 10951 10951 10952 10953 10954 10952 10953 10955 10958 10959 10961 10962 10963 10963 10965 10968 10971 10968 10967 10968 10967 10966 10966 10965 10964 10961 10962 10961 10961 10963 10965 10968 10971 10968 10969 10971
10939 10937 10938 10939 10939 10939 10938 10938 10938 10939 10938 10938 10940 10942 10941 10942 10944 10947 10949 10951 10955 10955 10958 10959 10960 10965 10967 10966 10966 10964 10964 10965 10962 10961 10957 10959 10961 10958 10961 10962 10966 10967 10968 10967 10971
10927 10926 10925 10926 10925 10927 10928 10928 10928 10929 10928 10927 10928 10930 10929 10931 10931 10933 10936 10941 10945 10947 10949 10952 10954 10955 10959 10961 10962 10962 10961 10961 10961 10962 10956 10957 10958 10956 10956 10958 10961 10963 10965 10967 10967
10915 10914 10913 10914 10914 10914 10917 10919 10920 10920 10920 10918 10920 10919 10923 10921 10922 10922 10924 10928 10933 10937 10940 10943 10946 10947 10950 10952 10957 10959 10958 10958 10958 10960 10956 10956 10957 10957 10956 10957 10958 10959 10961 10964 10965
10903 10902 10901 10902 10902 10903 10909 10908 10909 10911 10912 10911 10911 10911 10913 10913 10914 10914 10914 10916 10920 10925 10931 10935 10937 10936 10940 10944 10951 10953 10953 10954 10955 10955 10956 10955 10957 10956 10956 10956 10954 10956 10958 10962 10964
10891 10891 10890 10891 10890 10893 10897 10896 10897 10904 10901 10902 10902 10901 10904 10905 10906 10907 10909 10910 10911 10913 10918 10925 10924 10928 10935 10938 10943 10946 10948 10948 10951 10951 10953 10953 10955 10956 10955 10953 10954 10955 10957 10961 10964
10878 10878 10876 10877 10880 10881 10883 10883 10888 10892 10892 10887 10895 10893 10897 10896 10897 10898 10901 10903 10904 10906 10909 10912 10913 10921 10925 10928 10933 10937 10938 10942 10945 10949 10950 10950 10954 10955 10956 10955 10956 10957 10961 10962 10965
10864 10865 10863 10860 10865 10868 10872 10868 10875 10880 10884 10876 10885 10887 10886 10890 10887 10889 10892 10894 10896 10900 10901 10900 10906 10910 10915 10920 10922 10928 10924 10934 10940 10944 10946 10949 10952 10955 10957 10958 10957 10959 10962 10963 10965
10847 10847 10847 10847 10847 10854 10854 10855 10859 10864 10875 10867 10871 10874 10873 10877 10875 10879 10883 10886 10888 10892 10895 10894 10894 10899 10905 10906 10914 10905 10921 10928 10934 10939 10945 10948 10949 10953 10956 10955 10956 10959 10958 10959 10964
10828 10829 10830 10830 10829 10832 10838 10839 10842 10847 10860 10856 10858 10856 10858 10862 10865 10870 10875 10878 10880 10883 10886 10884 10889 10889 10893 10898 10903 10894 10912 10919 10925 10933 10943 10945 10946 10948 10948 10950 10953 10957 10958 10957 10963
10808 10809 10811 10805 10811 10814 10816 10822 10823 10833 10838 10837 10842 10846 10846 10847 10851 10856 10863 10867 10870 10874 10876 10876 10881 10883 10883 10884 10887 10888 10897 10908 10916 10927 10935 10930 10940 10936 10941 10945 10947 10952 10954 10957 10960
10788 10787 10784 10784 10787 10797 10795 10798 10809 10818 10814 10816 10826 10832 10832 10824 10831 10839 10847 10856 10859 10862 10862 10868 10871 10871 10872 10878 10879 10883 10887 10896 10904 10915 10918 10922 10936 10931 10936 10940 10943 10947 10949 10954 10956
10764 10762 10756 10755 10766 10769 10773 10779 10788 10788 10792 10795 10801 10804 10811 10813 10813 10819 10834 10841 10844 10847 10851 10854 10861 10855 10866 10868 10873 10871 10880 10879 10894 10900 10909 10919 10925 10923 10931 10936 10936 10942 10946 10946 10950
10737 10738 10722 10728 10737 10742 10745 10756 10759 10759 10762 10771 10774 10776 10786 10795 10802 10807 10814 10826 10825 10827 10831 10841 10846 10846 10853 10859 10867 10868 10865 10871 10883 10890 10898 10904 10911 10920 10917 10924 10930 10933 10937 10940 10944
10705 10710 10692 10697 10705 10713 10722 10725 10726 10722 10731 10741 10749 10755 10759 10762 10779 10791 10802 10801 10802 10807 10811 10821 10828 10830 10840 10853 10853 10857 10861 10863 10867 10878 10888 10894 10910 10904 10904 10908 10916 10920 10925 10928 10935
10671 10673 10660 10672 10668 10679 10689 10689 10694 10697 10690 10705 10717 10727 10735 10738 10757 10767 10786 10786 10778 10786 10794 10800 10809 10820 10832 10838 10841 10848 10855 10859 10864 10868 10874 10882 10896 10884 10889 10899 10903 10908 10916 10919 10923
10631 10631 10630 10631 10635 10641 10651 10657 10661 10663 10665 10661 10685 10699 10709 10717 10730 10740 10761 10762 10760 10766 10777 10779 10797 10806 10816 10823 10831 10838 10841 10843 10852 10857 10866 10872 10871 10871 10876 10884 10892 10897 10902 10907 10913
10595 10592 10590 10586 10600 10603 10610 10618 10623 10622 10627 10636 10648 10661 10679 10687 10693 10706 10725 10737 10737 10742 10757 10760 10774 10789 10804 10808 10803 10815 10822 10829 10839 10851 10856 10866 10862 10848 10857 10865 10873 10881 10887 10891 10898
10543 10545 10545 10541 10547 10559 10569 10576 10578 10584 10591 10605 10612 10620 10644 10655 10664 10673 10688 10707 10712 10714 10724 10740 10761 10763 10784 10788 10788 10801 10807 10812 10826 10835 10848 10850 10852 10844 10836 10849 10858 10868 10871 10884 10889
10490 10492 10493 10492 10496 10510 10516 10525 10531 10534 10547 10559 10575 10585 10599 10620 10628 10642 10659 10673 10679 10686 10690 10708 10736 10740 10760 10767 10770 10777 10785 10802 10812 10817 10831 10835 10838 10838 10829 10836 10846 10853 10862 10869 10874
10429 10430 10435 10433 10438 10452 10460 10475 10477 10485 10499 10509 10525 10544 10559 10572 10592 10613 10624 10640 10654 10656 10660 10672 10700 10717 10739 10743 10746 10733 10785 10789 10794 10799 10811 10818 10821 10819 10824 10821 10829 10836 10841 10849 10855